2024-203D

Last updated on Thu Nov 21 2024 00:02:05 GMT+0000 (Coordinated Universal Time)

1 61872U 24203D 24325.56484944 .00017036 00000+0 93552-3 0 9998 2 61872 97.4966 30.1863 0017053 180.9134 179.2069 15.14067549 1726
UTC large
Height (km)
Speed (km/s)
/
Latitude / Longitude
Inclination (degrees)
Orbital Period (minutes)
Azimuth
Elevation
Range (km)
Doppler Factor

Next 0 passes for location: London (51.5072 / 0.1276)

Sorry there are no passes over London.